Time,TemperatureF,DewpointF,PressureIn,WindDirection,WindDirectionDegrees,WindSpeedMPH,WindSpeedGustMPH,Humidity,HourlyPrecipIn,Conditions,Clouds,dailyrainin,SoftwareType,DateUTC
2013-01-17 00:00:00,42.0,42.0,29.99,SW,230,1.0,2.0,100,-99.99,,,-99.99,,2013-01-17 05:00:00,
2013-01-17 00:12:00,42.0,42.0,29.99,SW,230,1.0,2.0,100,-99.99,,,-99.99,,2013-01-17 05:12:00,
2013-01-17 00:22:00,42.0,42.0,29.99,SW,230,1.0,2.0,100,-99.99,,,-99.99,,2013-01-17 05:22:00,
2013-01-17 00:32:00,42.0,42.0,29.99,SW,230,1.0,2.0,100,-99.99,,,-99.99,,2013-01-17 05:32:00,
2013-01-17 00:42:00,42.0,42.0,29.99,SW,230,1.0,2.0,100,-99.99,,,-99.99,,2013-01-17 05:42:00,
2013-01-17 00:52:00,42.0,42.0,29.99,SW,230,1.0,2.0,100,-99.99,,,-99.99,,2013-01-17 05:52:00,
2013-01-17 01:00:00,42.0,42.0,30.01,West,270,3.0,3.0,100,-99.99,,,-99.99,,2013-01-17 06:00:00,
2013-01-17 01:11:00,42.0,42.0,30.01,West,270,3.0,3.0,100,-99.99,,,-99.99,,2013-01-17 06:11:00,
2013-01-17 01:22:00,42.0,42.0,30.01,West,270,3.0,3.0,100,-99.99,,,-99.99,,2013-01-17 06:22:00,
2013-01-17 01:32:00,42.0,42.0,30.01,West,270,3.0,3.0,100,-99.99,,,-99.99,,2013-01-17 06:32:00,
2013-01-17 01:42:00,42.0,42.0,30.01,West,270,3.0,3.0,100,-99.99,,,-99.99,,2013-01-17 06:42:00,
2013-01-17 01:52:00,42.0,42.0,30.01,West,270,3.0,3.0,100,-99.99,,,-99.99,,2013-01-17 06:52:00,
2013-01-17 02:00:00,42.0,42.0,30.04,West,260,6.0,6.0,100,-99.99,,,-99.99,,2013-01-17 07:00:00,
2013-01-17 02:11:00,42.0,42.0,30.04,West,260,6.0,6.0,100,-99.99,,,-99.99,,2013-01-17 07:11:00,
2013-01-17 02:22:00,42.0,42.0,30.04,West,260,6.0,6.0,100,-99.99,,,-99.99,,2013-01-17 07:22:00,
2013-01-17 02:32:00,42.0,42.0,30.04,West,260,6.0,6.0,100,-99.99,,,-99.99,,2013-01-17 07:32:00,
2013-01-17 02:42:00,42.0,42.0,30.04,West,260,6.0,6.0,100,-99.99,,,-99.99,,2013-01-17 07:42:00,
2013-01-17 02:52:00,42.0,42.0,30.04,West,260,6.0,6.0,100,-99.99,,,-99.99,,2013-01-17 07:52:00,
2013-01-17 03:00:00,42.0,42.0,30.03,SW,230,6.0,6.0,100,-99.99,,,-99.99,,2013-01-17 08:00:00,
2013-01-17 03:22:00,42.0,42.0,30.03,SW,230,6.0,6.0,100,-99.99,,,-99.99,,2013-01-17 08:22:00,
2013-01-17 03:32:00,42.0,42.0,30.03,SW,230,6.0,6.0,100,-99.99,,,-99.99,,2013-01-17 08:32:00,
2013-01-17 03:42:00,42.0,42.0,30.03,SW,230,6.0,6.0,100,-99.99,,,-99.99,,2013-01-17 08:42:00,
2013-01-17 03:52:00,42.0,42.0,30.03,SW,230,6.0,6.0,100,-99.99,,,-99.99,,2013-01-17 08:52:00,
2013-01-17 04:00:00,42.0,42.0,30.02,SSW,200,6.0,7.0,100,-99.99,,,-99.99,,2013-01-17 09:00:00,
2013-01-17 04:11:00,42.0,42.0,30.02,SSW,200,6.0,7.0,100,-99.99,,,-99.99,,2013-01-17 09:11:00,
2013-01-17 04:22:00,42.0,42.0,30.02,SSW,200,6.0,7.0,100,-99.99,,,-99.99,,2013-01-17 09:22:00,
2013-01-17 04:32:00,42.0,42.0,30.02,SSW,200,6.0,7.0,100,-99.99,,,-99.99,,2013-01-17 09:32:00,
2013-01-17 04:42:00,42.0,42.0,30.02,SSW,200,6.0,7.0,100,-99.99,,,-99.99,,2013-01-17 09:42:00,
2013-01-17 04:52:00,42.0,42.0,30.02,SSW,200,6.0,7.0,100,-99.99,,,-99.99,,2013-01-17 09:52:00,
2013-01-17 05:00:00,42.0,42.0,30.02,SW,230,5.0,6.0,100,-99.99,,,-99.99,,2013-01-17 10:00:00,
2013-01-17 05:11:00,42.0,42.0,30.02,SW,230,5.0,6.0,100,-99.99,,,-99.99,,2013-01-17 10:11:00,
2013-01-17 05:21:00,42.0,42.0,30.02,SW,230,5.0,6.0,100,-99.99,,,-99.99,,2013-01-17 10:21:00,
2013-01-17 05:32:00,42.0,42.0,30.02,SW,230,5.0,6.0,100,-99.99,,,-99.99,,2013-01-17 10:32:00,
2013-01-17 05:42:00,42.0,42.0,30.02,SW,230,5.0,6.0,100,-99.99,,,-99.99,,2013-01-17 10:42:00,
2013-01-17 05:52:00,42.0,42.0,30.02,SW,230,5.0,6.0,100,-99.99,,,-99.99,,2013-01-17 10:52:00,
2013-01-17 06:00:00,42.0,42.0,30.05,WSW,250,2.0,2.0,100,-99.99,,,-99.99,,2013-01-17 11:00:00,
2013-01-17 06:11:00,42.0,42.0,30.05,WSW,250,2.0,2.0,100,-99.99,,,-99.99,,2013-01-17 11:11:00,
2013-01-17 06:22:00,42.0,42.0,30.05,WSW,250,2.0,2.0,100,-99.99,,,-99.99,,2013-01-17 11:22:00,
2013-01-17 06:32:00,42.0,42.0,30.05,WSW,250,2.0,2.0,100,-99.99,,,-99.99,,2013-01-17 11:32:00,
2013-01-17 06:42:00,42.0,42.0,30.05,WSW,250,2.0,2.0,100,-99.99,,,-99.99,,2013-01-17 11:42:00,
2013-01-17 06:52:00,42.0,42.0,30.05,WSW,250,2.0,2.0,100,-99.99,,,-99.99,,2013-01-17 11:52:00,
2013-01-17 07:00:00,44.0,43.0,30.08,West,270,6.0,8.0,95,-99.99,,,-99.99,,2013-01-17 12:00:00,
2013-01-17 07:11:00,44.0,43.0,30.08,West,270,6.0,8.0,95,-99.99,,,-99.99,,2013-01-17 12:11:00,
2013-01-17 07:22:00,44.0,43.0,30.08,West,270,6.0,8.0,95,-99.99,,,-99.99,,2013-01-17 12:22:00,
2013-01-17 07:32:00,44.0,43.0,30.08,West,270,6.0,8.0,95,-99.99,,,-99.99,,2013-01-17 12:32:00,
2013-01-17 07:42:00,44.0,43.0,30.08,West,270,6.0,8.0,95,-99.99,,,-99.99,,2013-01-17 12:42:00,
2013-01-17 07:52:00,44.0,43.0,30.08,West,270,6.0,8.0,95,-99.99,,,-99.99,,2013-01-17 12:52:00,
2013-01-17 08:00:00,45.0,-99.9,30.10,WNW,300,7.0,8.0,-999,-99.99,,,-99.99,,2013-01-17 13:00:00,
2013-01-17 08:13:00,45.0,-99.9,30.10,WNW,300,7.0,8.0,-999,-99.99,,,-99.99,,2013-01-17 13:13:00,
2013-01-17 08:23:00,45.0,-99.9,30.10,WNW,300,7.0,8.0,-999,-99.99,,,-99.99,,2013-01-17 13:23:00,
2013-01-17 08:33:00,45.0,-99.9,30.10,WNW,300,7.0,8.0,-999,-99.99,,,-99.99,,2013-01-17 13:33:00,
2013-01-17 08:43:00,45.0,-99.9,30.10,WNW,300,7.0,8.0,-999,-99.99,,,-99.99,,2013-01-17 13:43:00,
2013-01-17 08:53:00,45.0,-99.9,30.10,WNW,300,7.0,8.0,-999,-99.99,,,-99.99,,2013-01-17 13:53:00,
2013-01-17 09:12:00,44.0,28.0,30.14,NW,310,8.0,9.0,52,-99.99,,,-99.99,,2013-01-17 14:12:00,
2013-01-17 09:22:00,44.0,28.0,30.14,NW,310,8.0,9.0,52,-99.99,,,-99.99,,2013-01-17 14:22:00,
2013-01-17 10:11:00,44.0,27.0,30.14,NW,320,6.0,9.0,50,-99.99,,,-99.99,,2013-01-17 15:11:00,
2013-01-17 10:22:00,44.0,27.0,30.14,NW,320,6.0,9.0,50,-99.99,,,-99.99,,2013-01-17 15:22:00,
2013-01-17 11:12:00,44.0,26.0,30.14,NNW,330,11.0,13.0,50,-99.99,,,-99.99,,2013-01-17 16:12:00,
2013-01-17 11:22:00,44.0,26.0,30.14,NNW,330,11.0,13.0,50,-99.99,,,-99.99,,2013-01-17 16:22:00,
2013-01-17 11:42:00,44.0,26.0,30.14,NNW,330,11.0,13.0,50,-99.99,,,-99.99,,2013-01-17 16:42:00,
2013-01-17 11:52:00,44.0,26.0,30.14,NNW,330,11.0,13.0,50,-99.99,,,-99.99,,2013-01-17 16:52:00,
2013-01-17 12:12:00,43.0,27.0,30.11,NNW,330,8.0,9.0,51,-99.99,,,-99.99,,2013-01-17 17:12:00,
2013-01-17 12:22:00,43.0,27.0,30.11,NNW,330,8.0,9.0,51,-99.99,,,-99.99,,2013-01-17 17:22:00,
2013-01-17 13:00:00,43.0,31.0,30.09,North,360,9.0,10.0,62,-99.99,,,-99.99,,2013-01-17 18:00:00,
2013-01-17 13:12:00,43.0,31.0,30.09,North,360,9.0,10.0,62,-99.99,,,-99.99,,2013-01-17 18:12:00,
2013-01-17 13:22:00,43.0,31.0,30.09,North,360,9.0,10.0,62,-99.99,,,-99.99,,2013-01-17 18:22:00,
2013-01-17 13:33:00,43.0,31.0,30.09,North,360,9.0,10.0,62,-99.99,,,-99.99,,2013-01-17 18:33:00,
2013-01-17 13:42:00,43.0,31.0,30.09,North,360,9.0,10.0,62,-99.99,,,-99.99,,2013-01-17 18:42:00,
2013-01-17 13:52:00,43.0,31.0,30.09,North,360,9.0,10.0,62,-99.99,,,-99.99,,2013-01-17 18:52:00,
2013-01-17 14:00:00,42.0,31.0,30.09,NNE,20,15.0,16.0,63,-99.99,,,-99.99,,2013-01-17 19:00:00,
2013-01-17 14:12:00,42.0,31.0,30.09,NNE,20,15.0,16.0,63,-99.99,,,-99.99,,2013-01-17 19:12:00,
2013-01-17 14:22:00,42.0,31.0,30.09,NNE,20,15.0,16.0,63,-99.99,,,-99.99,,2013-01-17 19:22:00,
2013-01-17 14:32:00,42.0,31.0,30.09,NNE,20,15.0,16.0,63,-99.99,,,-99.99,,2013-01-17 19:32:00,
2013-01-17 14:42:00,42.0,31.0,30.09,NNE,20,15.0,16.0,63,-99.99,,,-99.99,,2013-01-17 19:42:00,
2013-01-17 14:52:00,42.0,31.0,30.09,NNE,20,15.0,16.0,63,-99.99,,,-99.99,,2013-01-17 19:52:00,
2013-01-17 15:00:00,41.0,31.0,30.10,NE,40,14.0,15.0,66,-99.99,,,-99.99,,2013-01-17 20:00:00,
2013-01-17 15:22:00,41.0,31.0,30.10,NE,40,14.0,15.0,66,-99.99,,,-99.99,,2013-01-17 20:22:00,
2013-01-17 15:32:00,41.0,31.0,30.10,NE,40,14.0,15.0,66,-99.99,,,-99.99,,2013-01-17 20:32:00,
2013-01-17 15:42:00,41.0,31.0,30.10,NE,40,14.0,15.0,66,-99.99,,,-99.99,,2013-01-17 20:42:00,
2013-01-17 15:53:00,41.0,31.0,30.10,NE,40,14.0,15.0,66,-99.99,,,-99.99,,2013-01-17 20:53:00,
2013-01-17 16:00:00,41.0,29.0,30.12,NE,40,9.0,10.0,61,-99.99,,,-99.99,,2013-01-17 21:00:00,
2013-01-17 16:22:00,41.0,29.0,30.12,NE,40,9.0,10.0,61,-99.99,,,-99.99,,2013-01-17 21:22:00,
2013-01-17 16:33:00,41.0,29.0,30.12,NE,40,9.0,10.0,61,-99.99,,,-99.99,,2013-01-17 21:33:00,
2013-01-17 16:42:00,41.0,29.0,30.12,NE,40,9.0,10.0,61,-99.99,,,-99.99,,2013-01-17 21:42:00,
2013-01-17 16:52:00,41.0,29.0,30.12,NE,40,9.0,10.0,61,-99.99,,,-99.99,,2013-01-17 21:52:00,
2013-01-17 17:00:00,41.0,29.0,30.11,East,80,8.0,9.0,62,-99.99,,,-99.99,,2013-01-17 22:00:00,
2013-01-17 17:22:00,41.0,29.0,30.11,East,80,8.0,9.0,62,-99.99,,,-99.99,,2013-01-17 22:22:00,
2013-01-17 17:32:00,41.0,29.0,30.11,East,80,8.0,9.0,62,-99.99,,,-99.99,,2013-01-17 22:32:00,
2013-01-17 17:42:00,41.0,29.0,30.11,East,80,8.0,9.0,62,-99.99,,,-99.99,,2013-01-17 22:42:00,
2013-01-17 17:52:00,41.0,29.0,30.11,East,80,8.0,9.0,62,-99.99,,,-99.99,,2013-01-17 22:52:00,
2013-01-17 18:00:00,41.0,30.0,30.11,NNE,20,8.0,8.0,64,-99.99,,,-99.99,,2013-01-17 23:00:00,
2013-01-17 18:22:00,41.0,30.0,30.11,NNE,20,8.0,8.0,64,-99.99,,,-99.99,,2013-01-17 23:22:00,
2013-01-17 18:32:00,41.0,30.0,30.11,NNE,20,8.0,8.0,64,-99.99,,,-99.99,,2013-01-17 23:32:00,
2013-01-17 18:42:00,41.0,30.0,30.11,NNE,20,8.0,8.0,64,-99.99,,,-99.99,,2013-01-17 23:42:00,
2013-01-17 18:52:00,41.0,30.0,30.11,NNE,20,8.0,8.0,64,-99.99,,,-99.99,,2013-01-17 23:52:00,
2013-01-17 19:00:00,40.0,31.0,30.13,North,360,8.0,8.0,69,-99.99,,,-99.99,,2013-01-18 00:00:00,
2013-01-17 19:22:00,40.0,31.0,30.13,North,360,8.0,8.0,69,-99.99,,,-99.99,,2013-01-18 00:22:00,
2013-01-17 19:32:00,40.0,31.0,30.13,North,360,8.0,8.0,69,-99.99,,,-99.99,,2013-01-18 00:32:00,
2013-01-17 19:42:00,40.0,31.0,30.13,North,360,8.0,8.0,69,-99.99,,,-99.99,,2013-01-18 00:42:00,
2013-01-17 19:52:00,40.0,31.0,30.13,North,360,8.0,8.0,69,-99.99,,,-99.99,,2013-01-18 00:52:00,
2013-01-17 20:00:00,40.0,32.0,30.11,North,350,10.0,10.0,72,-99.99,,,-99.99,,2013-01-18 01:00:00,
2013-01-17 20:11:00,40.0,32.0,30.11,North,350,10.0,10.0,72,-99.99,,,-99.99,,2013-01-18 01:11:00,
2013-01-17 20:22:00,40.0,32.0,30.11,North,350,10.0,10.0,72,-99.99,,,-99.99,,2013-01-18 01:22:00,
2013-01-17 20:32:00,40.0,32.0,30.11,North,350,10.0,10.0,72,-99.99,,,-99.99,,2013-01-18 01:32:00,
2013-01-17 20:42:00,40.0,32.0,30.11,North,350,10.0,10.0,72,-99.99,,,-99.99,,2013-01-18 01:42:00,
2013-01-17 20:52:00,40.0,32.0,30.11,North,350,10.0,10.0,72,-99.99,,,-99.99,,2013-01-18 01:52:00,
2013-01-17 21:00:00,40.0,30.0,30.10,North,350,6.0,7.0,66,-99.99,,,-99.99,,2013-01-18 02:00:00,
2013-01-17 21:11:00,40.0,30.0,30.10,North,350,6.0,7.0,66,-99.99,,,-99.99,,2013-01-18 02:11:00,
2013-01-17 21:22:00,40.0,30.0,30.10,North,350,6.0,7.0,66,-99.99,,,-99.99,,2013-01-18 02:22:00,
2013-01-17 21:32:00,40.0,30.0,30.10,North,350,6.0,7.0,66,-99.99,,,-99.99,,2013-01-18 02:32:00,
2013-01-17 21:42:00,40.0,30.0,30.10,North,350,6.0,7.0,66,-99.99,,,-99.99,,2013-01-18 02:42:00,
2013-01-17 21:52:00,40.0,30.0,30.10,North,350,6.0,7.0,66,-99.99,,,-99.99,,2013-01-18 02:52:00,
2013-01-17 22:00:00,40.0,29.0,30.09,NNW,330,2.0,2.0,65,-99.99,,,-99.99,,2013-01-18 03:00:00,
2013-01-17 22:22:00,40.0,29.0,30.09,NNW,330,2.0,2.0,65,-99.99,,,-99.99,,2013-01-18 03:22:00,
2013-01-17 22:32:00,40.0,29.0,30.09,NNW,330,2.0,2.0,65,-99.99,,,-99.99,,2013-01-18 03:32:00,
2013-01-17 22:42:00,40.0,29.0,30.09,NNW,330,2.0,2.0,65,-99.99,,,-99.99,,2013-01-18 03:42:00,
2013-01-17 22:52:00,40.0,29.0,30.09,NNW,330,2.0,2.0,65,-99.99,,,-99.99,,2013-01-18 03:52:00,
2013-01-17 23:11:00,40.0,29.0,30.09,NW,320,8.0,10.0,64,-99.99,,,-99.99,,2013-01-18 04:11:00,
2013-01-17 23:22:00,40.0,29.0,30.09,NW,320,8.0,10.0,64,-99.99,,,-99.99,,2013-01-18 04:22:00,
2013-01-17 23:32:00,40.0,29.0,30.09,NW,320,8.0,10.0,64,-99.99,,,-99.99,,2013-01-18 04:32:00,
2013-01-17 23:42:00,40.0,29.0,30.09,NW,320,8.0,10.0,64,-99.99,,,-99.99,,2013-01-18 04:42:00,
2013-01-17 23:52:00,40.0,29.0,30.09,NW,320,8.0,10.0,64,-99.99,,,-99.99,,2013-01-18 04:52:00,